This is the latest recevied weather packets stored in our database for station/object KO5MO-3. If no packets are shown the sender has not sent any weather packets the latest 10 day(s).
| Time | Temp. | Humidity | Pressure | Rain* | Wind** | Luminosity | Snow |
|---|---|---|---|---|---|---|---|
| 1777733598 | 27.22° C | 35% | 1010.8 hPa | 0 mm | - | - | - |
| 1777733298 | 27.22° C | 34% | 1010.8 hPa | 0 mm | - | - | - |
| 1777732998 | 26.67° C | 34% | 1010.9 hPa | 0 mm | - | - | - |
| 1777732698 | 26.67° C | 32% | 1010.8 hPa | 0 mm | - | - | - |
| 1777732398 | 27.22° C | 31% | 1010.8 hPa | 0 mm | - | - | - |
| 1777732098 | 26.11° C | 31% | 1010.8 hPa | 0 mm | - | - | - |
| 1777731798 | 26.11° C | 31% | 1010.7 hPa | 0 mm | - | - | - |
| 1777731498 | 26.67° C | 31% | 1010.7 hPa | 0 mm | - | - | - |
| 1777731198 | 25.56° C | 31% | 1010.7 hPa | 0 mm | - | - | - |
| 1777730898 | 26.11° C | 31% | 1010.7 hPa | 0 mm | - | - | - |
| 1777730599 | 25° C | 32% | 1010.7 hPa | 0 mm | - | - | - |
| 1777730298 | 25° C | 33% | 1010.6 hPa | 0 mm | - | - | - |
| 1777729999 | 24.44° C | 34% | 1010.6 hPa | 0 mm | - | - | - |
| 1777729698 | 23.89° C | 35% | 1010.4 hPa | 0 mm | - | - | - |
| 1777729398 | 23.89° C | 36% | 1010.4 hPa | 0 mm | - | - | - |
| 1777729098 | 22.78° C | 36% | 1010.2 hPa | 0 mm | - | - | - |
| 1777728798 | 22.78° C | 36% | 1010.2 hPa | 0 mm | - | - | - |
| 1777728498 | 22.22° C | 38% | 1010.1 hPa | 0 mm | - | - | - |
| 1777728198 | 21.67° C | 38% | 1010 hPa | 0 mm | - | - | - |
| 1777727898 | 21.11° C | 38% | 1010 hPa | 0 mm | - | - | - |
| 1777727598 | 20.56° C | 40% | 1009.9 hPa | 0 mm | - | - | - |
| 1777727298 | 20° C | 39% | 1009.8 hPa | 0 mm | - | - | - |
| 1777726998 | 19.44° C | 41% | 1009.7 hPa | 0 mm | - | - | - |
| 1777726698 | 18.89° C | 42% | 1009.6 hPa | 0 mm | - | - | - |
| 1777726398 | 18.89° C | 41% | 1009.5 hPa | 0 mm | - | - | - |
* Rain latest hour (hover to see other rain measurements)
** Current wind speed in m/s (hover to see current wind gust speed)